Language: 


Des rapports , des résumés tant et plus, au choix de chacun....


Données statistiques de la station
Quotidien Rapport Octobre 20, 2017 Unités:  Anglais    Métrique   les deux
« Précédent Jour
Suivant Jour »
Quotidien Hebdomadaire Mensuel Annuel Actuel
  Haut: Bas: Moyen:
Température: 62.2 °F 32 °F 51.3 °F
Pt de rosée: 59 °F 46.4 °F 53.1 °F
Humidité: 94 % 0 % 65 %
Vitesse du vent: 19.5 mph 0 mph 9.7 mph
Rafales: 19.5 mph - -
Vent:- - SW
Pression: 29.9 in 29.6 in -
Précipitation: 0.21 in    
Historical Graphs
 
 
Données statistiques pour Octobre 20, 2017
Heure Température Point de rosée Pression Vent Vitesse du vent Refales Humidité Pluie (taux horaire)
00:02 61.9 °F 59 °F 29.7 in SSW 4.9 mph 8.1 mph 87 % 0 in
00:07 61.9 °F 59 °F 29.7 in South 6 mph 8.1 mph 87 % 0 in
00:12 61.5 °F 57.2 °F 29.7 in SSW 4.9 mph 8.1 mph 87 % 0 in
00:17 61.3 °F 57.2 °F 29.7 in South 6.3 mph 6.3 mph 88 % 0 in
00:22 61.3 °F 57.2 °F 29.7 in SSW 4.9 mph 6.7 mph 88 % 0 in
00:27 61.3 °F 59 °F 29.7 in SSW 6 mph 8.5 mph 89 % 0 in
00:32 61.5 °F 59 °F 29.7 in South 6.5 mph 8.5 mph 89 % 0 in
00:37 61.3 °F 59 °F 29.7 in South 7.8 mph 8.5 mph 89 % 0 in
00:42 61.5 °F 59 °F 29.7 in SSW 5.4 mph 8.7 mph 89 % 0 in
00:47 61.5 °F 59 °F 29.7 in South 8.1 mph 8.7 mph 89 % 0 in
00:52 61.5 °F 59 °F 29.7 in SSW 5.4 mph 12.3 mph 89 % 0 in
00:57 61.7 °F 59 °F 29.7 in SSW 4 mph 12.3 mph 88 % 0 in
01:02 61.5 °F 57.2 °F 29.7 in South 6.3 mph 11 mph 87 % 0 in
01:07 61.7 °F 59 °F 29.7 in South 7.2 mph 10.1 mph 87 % 0 in
01:12 61.7 °F 59 °F 29.7 in SSW 5.6 mph 10.1 mph 87 % 0 in
01:17 61.5 °F 57.2 °F 29.7 in SW 4.9 mph 12.5 mph 87 % 0 in
01:22 61.3 °F 57.2 °F 29.7 in South 5.8 mph 12.5 mph 88 % 0 in
01:27 61.3 °F 57.2 °F 29.7 in SSW 4.3 mph 12.3 mph 88 % 0 in
01:32 61.3 °F 57.2 °F 29.7 in SSW 5.8 mph 11 mph 88 % 0 in
01:37 61.3 °F 57.2 °F 29.7 in South 6 mph 11 mph 88 % 0 in
01:43 61.3 °F 57.2 °F 29.7 in South 7.4 mph 15.2 mph 88 % 0 in
01:48 60.8 °F 57.2 °F 29.7 in SSW 10.1 mph 15.2 mph 88 % 0 in
01:53 60.6 °F 57.2 °F 29.7 in SSW 6.3 mph 11 mph 88 % 0 in
01:58 60.6 °F 57.2 °F 29.7 in South 7.2 mph 12.1 mph 88 % 0 in
02:03 60.6 °F 57.2 °F 29.6 in South 6.3 mph 12.1 mph 88 % 0 in
02:08 60.4 °F 57.2 °F 29.6 in SSW 7.8 mph 12.1 mph 88 % 0 in
02:13 60.4 °F 57.2 °F 29.6 in South 10.5 mph 15.9 mph 87 % 0 in
02:18 60.4 °F 57.2 °F 29.6 in South 9.6 mph 15.9 mph 87 % 0 in
02:23 60.4 °F 57.2 °F 29.6 in SSE 7.4 mph 12.1 mph 87 % 0 in
02:28 60.6 °F 57.2 °F 29.6 in SSW 5.4 mph 11.9 mph 87 % 0 in
02:33 60.6 °F 57.2 °F 29.6 in SSW 10.3 mph 13 mph 87 % 0 in
02:38 60.6 °F 57.2 °F 29.6 in SSW 10.7 mph 13 mph 87 % 0 in
02:43 60.6 °F 57.2 °F 29.6 in South 5.6 mph 14.3 mph 87 % 0 in
02:48 60.6 °F 57.2 °F 29.6 in SSW 6 mph 14.3 mph 87 % 0 in
02:53 60.6 °F 57.2 °F 29.6 in South 6 mph 15.9 mph 87 % 0.01 in
02:58 60.6 °F 57.2 °F 29.6 in SSW 5.6 mph 15.9 mph 87 % 0.02 in
03:03 32 °F 57.2 °F 29.7 in SSW 7.6 mph 12.7 mph 0 % 0.02 in
03:08 32 °F 57.2 °F 29.7 in South 4.3 mph 10.7 mph 0 % 0.02 in
03:13 32 °F 57.2 °F 29.7 in SSW 11.2 mph 11.2 mph 0 % 0.02 in
03:18 32 °F 57.2 °F 29.6 in SSW 5.4 mph 11.2 mph 0 % 0.02 in
03:23 32 °F 57.2 °F 29.6 in SW 8.7 mph 13.2 mph 0 % 0.02 in
03:28 32 °F 57.2 °F 29.6 in SSW 5.4 mph 13.2 mph 0 % 0.02 in
03:33 32 °F 57.2 °F 29.6 in SSW 10.1 mph 12.8 mph 0 % 0.02 in
03:39 32 °F 57.2 °F 29.6 in South 6.3 mph 12.8 mph 0 % 0.02 in
03:44 32 °F 57.2 °F 29.6 in SSW 8.5 mph 10.5 mph 0 % 0.02 in
03:49 32 °F 57.2 °F 29.6 in South 7.8 mph 10.5 mph 0 % 0.02 in
03:54 32 °F 57.2 °F 29.6 in South 9.2 mph 10.5 mph 0 % 0.02 in
03:59 32 °F 57.2 °F 29.6 in SSW 11 mph 11 mph 0 % 0.02 in
04:04 32 °F 57.2 °F 29.6 in SSW 8.1 mph 11 mph 0 % 0.02 in
04:09 32 °F 57.2 °F 29.6 in SSW 6.3 mph 11 mph 0 % 0.02 in
04:14 32 °F 57.2 °F 29.6 in SSW 8.7 mph 11 mph 0 % 0.02 in
04:19 32 °F 57.2 °F 29.6 in South 7.6 mph 11 mph 0 % 0.02 in
04:24 32 °F 57.2 °F 29.6 in South 7.4 mph 8.7 mph 0 % 0.02 in
04:29 32 °F 57.2 °F 29.6 in SSW 6 mph 9.8 mph 0 % 0.02 in
04:34 32 °F 57.2 °F 29.6 in South 7.2 mph 12.1 mph 0 % 0.02 in
04:39 32 °F 57.2 °F 29.6 in SW 13 mph 13.2 mph 0 % 0.02 in
04:44 32 °F 57.2 °F 29.6 in South 7.4 mph 13.2 mph 0 % 0.02 in
04:49 32 °F 57.2 °F 29.6 in WSW 8.5 mph 13.2 mph 0 % 0.02 in
04:54 32 °F 57.2 °F 29.6 in SW 9.6 mph 13.2 mph 0 % 0.02 in
04:59 32 °F 57.2 °F 29.6 in WSW 7.6 mph 13.2 mph 0 % 0.02 in
05:04 32 °F 57.2 °F 29.6 in SSW 12.1 mph 12.1 mph 0 % 0.02 in
05:09 32 °F 57.2 °F 29.6 in WSW 6.9 mph 12.1 mph 0 % 0.02 in
05:14 32 °F 57.2 °F 29.6 in SSW 7.6 mph 9.6 mph 0 % 0.02 in
05:19 32 °F 57.2 °F 29.6 in WSW 9.8 mph 10.7 mph 0 % 0.02 in
05:23 32 °F 57.2 °F 29.6 in WSW 4.3 mph 10.7 mph 0 % 0.02 in
05:24 32 °F 57.2 °F 29.6 in WSW 6.3 mph 10.7 mph 0 % 0.02 in
05:29 32 °F 57.2 °F 29.6 in WSW 6.3 mph 9.8 mph 0 % 0.02 in
05:34 32 °F 57.2 °F 29.6 in SW 10.3 mph 12.5 mph 0 % 0.02 in
05:39 32 °F 57.2 °F 29.6 in SSW 7.2 mph 12.5 mph 0 % 0.02 in
05:44 32 °F 57.2 °F 29.6 in SSW 7.4 mph 10.3 mph 0 % 0.02 in
05:49 32 °F 57.2 °F 29.6 in SSW 4.9 mph 8.7 mph 0 % 0.02 in
05:54 32 °F 57.2 °F 29.6 in SSW 4.9 mph 8.7 mph 0 % 0.02 in
05:59 32 °F 57.2 °F 29.6 in SSW 6.3 mph 8.5 mph 0 % 0.02 in
06:04 32 °F 57.2 °F 29.6 in SW 6 mph 7.6 mph 0 % 0.02 in
06:09 32 °F 57.2 °F 29.6 in SSW 5.6 mph 7.4 mph 0 % 0.02 in
06:14 32 °F 57.2 °F 29.6 in SSW 5.6 mph 7.8 mph 0 % 0.02 in
06:19 32 °F 57.2 °F 29.6 in SW 5.8 mph 8.1 mph 0 % 0.02 in
06:24 32 °F 57.2 °F 29.6 in SW 5.4 mph 8.5 mph 0 % 0.02 in
06:29 32 °F 57.2 °F 29.6 in SW 9.2 mph 10.5 mph 0 % 0.02 in
06:34 32 °F 57.2 °F 29.6 in SW 8.7 mph 10.5 mph 0 % 0.02 in
06:39 32 °F 57.2 °F 29.6 in WSW 7.8 mph 11 mph 0 % 0.02 in
06:44 32 °F 57.2 °F 29.6 in SW 9.8 mph 13.2 mph 0 % 0.02 in
06:49 32 °F 57.2 °F 29.7 in WSW 10.5 mph 13.2 mph 0 % 0.02 in
06:54 32 °F 57.2 °F 29.7 in SW 7.6 mph 11 mph 0 % 0.02 in
06:59 32 °F 57.2 °F 29.7 in SW 9.2 mph 11 mph 0 % 0.02 in
07:04 32 °F 57.2 °F 29.7 in SW 6.3 mph 13.2 mph 0 % 0.02 in
07:09 32 °F 57.2 °F 29.7 in SSW 5.6 mph 13.2 mph 0 % 0.02 in
07:14 32 °F 57.2 °F 29.7 in SW 6.7 mph 13 mph 0 % 0.02 in
07:19 32 °F 57.2 °F 29.7 in SW 6.3 mph 13.2 mph 0 % 0.02 in
07:24 32 °F 57.2 °F 29.7 in SW 8.7 mph 13.2 mph 0 % 0.02 in
07:29 32 °F 57.2 °F 29.7 in South 6.5 mph 14.1 mph 0 % 0.02 in
07:34 32 °F 57.2 °F 29.7 in SW 7.8 mph 14.1 mph 0 % 0.02 in
07:39 32 °F 57.2 °F 29.7 in SW 8.1 mph 10.1 mph 0 % 0.02 in
07:44 32 °F 57.2 °F 29.7 in SW 7.8 mph 11 mph 0 % 0.02 in
07:49 32 °F 57.2 °F 29.7 in South 7.4 mph 11 mph 0 % 0.02 in
07:54 32 °F 57.2 °F 29.7 in SW 5.4 mph 8.7 mph 0 % 0.02 in
07:59 32 °F 57.2 °F 29.7 in WSW 12.3 mph 12.3 mph 0 % 0.02 in
08:05 32 °F 57.2 °F 29.7 in SSW 9.6 mph 12.3 mph 0 % 0.02 in
08:10 32 °F 57.2 °F 29.7 in SSW 9.6 mph 12.3 mph 0 % 0.02 in
08:15 32 °F 57.2 °F 29.7 in SSW 9.6 mph 12.3 mph 0 % 0.02 in
08:20 54.1 °F 53.6 °F 29.7 in SSW 9.6 mph 9.6 mph 94 % 0 in
08:25 54.1 °F 53.6 °F 29.7 in SSW 9.6 mph 9.6 mph 94 % 0 in
08:30 54.1 °F 53.6 °F 29.7 in SSW 9.6 mph 9.6 mph 94 % 0 in
08:35 54.1 °F 53.6 °F 29.7 in SSW 9.6 mph 9.6 mph 94 % 0 in
08:40 54.1 °F 53.6 °F 29.7 in SSW 9.6 mph 9.6 mph 94 % 0 in
08:45 54.1 °F 53.6 °F 29.7 in SSW 9.6 mph 9.6 mph 94 % 0 in
08:50 54.1 °F 53.6 °F 29.7 in SSW 9.6 mph 9.6 mph 94 % 0 in
08:55 54.1 °F 53.6 °F 29.7 in SW 12.5 mph 12.5 mph 94 % 0 in
09:01 54.1 °F 53.6 °F 29.7 in SW 12.5 mph 12.5 mph 94 % 0 in
09:06 54.1 °F 53.6 °F 29.7 in SW 12.5 mph 12.5 mph 94 % 0 in
09:11 54.1 °F 53.6 °F 29.7 in SW 12.5 mph 12.5 mph 94 % 0 in
09:16 54.1 °F 53.6 °F 29.7 in SW 12.5 mph 12.5 mph 94 % 0 in
09:21 54.1 °F 53.6 °F 29.7 in SW 12.5 mph 12.5 mph 94 % 0 in
09:26 54.1 °F 53.6 °F 29.7 in SW 12.5 mph 12.5 mph 94 % 0 in
09:31 54.1 °F 53.6 °F 29.7 in SW 12.5 mph 12.5 mph 94 % 0 in
09:36 54.1 °F 53.6 °F 29.7 in SW 12.5 mph 12.5 mph 94 % 0 in
09:41 54.1 °F 53.6 °F 29.7 in SW 12.5 mph 12.5 mph 94 % 0 in
09:46 54.1 °F 53.6 °F 29.7 in SW 12.5 mph 12.5 mph 94 % 0 in
09:51 54.1 °F 53.6 °F 29.7 in SW 12.5 mph 12.5 mph 94 % 0 in
09:56 54.1 °F 53.6 °F 29.7 in SW 12.5 mph 12.5 mph 94 % 0 in
10:01 54.1 °F 53.6 °F 29.8 in SW 12.5 mph 12.5 mph 94 % 0 in
10:06 54.1 °F 53.6 °F 29.8 in SW 12.5 mph 12.5 mph 94 % 0 in
10:11 54.1 °F 53.6 °F 29.8 in SW 12.5 mph 12.5 mph 94 % 0 in
10:16 54.1 °F 53.6 °F 29.7 in SSW 15.2 mph 15.2 mph 94 % 0 in
10:21 54.1 °F 53.6 °F 29.7 in SSW 15.2 mph 15.2 mph 94 % 0 in
10:26 54.1 °F 53.6 °F 29.7 in SSW 15.2 mph 15.2 mph 94 % 0 in
10:32 54.1 °F 53.6 °F 29.7 in SSW 15.2 mph 15.2 mph 94 % 0 in
10:37 54.1 °F 53.6 °F 29.7 in SSW 15.2 mph 15.2 mph 94 % 0 in
10:42 54.1 °F 53.6 °F 29.7 in SSW 15.2 mph 15.2 mph 94 % 0 in
10:47 54.1 °F 53.6 °F 29.7 in SSW 12.5 mph 12.5 mph 94 % 0 in
10:52 54.1 °F 53.6 °F 29.7 in SSW 9.8 mph 12.5 mph 94 % 0 in
10:57 54.1 °F 53.6 °F 29.7 in SSW 9.8 mph 12.5 mph 94 % 0 in
11:02 54.1 °F 53.6 °F 29.7 in SSW 9.8 mph 12.5 mph 94 % 0 in
11:07 54.1 °F 53.6 °F 29.7 in WSW 10.5 mph 10.5 mph 94 % 0 in
11:12 54.1 °F 53.6 °F 29.7 in WSW 10.5 mph 10.5 mph 94 % 0 in
11:17 54.1 °F 53.6 °F 29.7 in WSW 10.5 mph 10.5 mph 94 % 0 in
11:22 54.1 °F 53.6 °F 29.7 in WSW 10.5 mph 10.5 mph 94 % 0 in
11:27 54.1 °F 53.6 °F 29.7 in WSW 10.5 mph 10.5 mph 94 % 0 in
11:32 54.1 °F 53.6 °F 29.7 in WSW 10.5 mph 10.5 mph 94 % 0 in
11:37 54.1 °F 53.6 °F 29.7 in WSW 10.5 mph 10.5 mph 94 % 0 in
11:42 54.1 °F 53.6 °F 29.7 in WSW 10.5 mph 10.5 mph 94 % 0 in
11:48 54.1 °F 53.6 °F 29.7 in WSW 10.5 mph 10.5 mph 94 % 0 in
11:53 54.1 °F 53.6 °F 29.7 in WSW 9.8 mph 10.7 mph 94 % 0 in
11:58 54.1 °F 53.6 °F 29.7 in WSW 9.8 mph 10.7 mph 94 % 0 in
12:03 54.1 °F 53.6 °F 29.8 in SSW 13.2 mph 13.2 mph 94 % 0 in
12:08 54.1 °F 53.6 °F 29.8 in SSW 13.2 mph 13.2 mph 94 % 0 in
12:13 54.1 °F 53.6 °F 29.8 in WSW 13.2 mph 13.4 mph 94 % 0 in
12:18 54.1 °F 53.6 °F 29.8 in WSW 13.2 mph 13.4 mph 94 % 0 in
12:23 54.1 °F 53.6 °F 29.8 in WSW 13.2 mph 13.4 mph 94 % 0 in
12:28 54.1 °F 53.6 °F 29.8 in WSW 13.2 mph 13.4 mph 94 % 0 in
12:33 54.1 °F 53.6 °F 29.8 in WSW 13.2 mph 13.4 mph 94 % 0 in
12:38 54.1 °F 53.6 °F 29.8 in WSW 13.2 mph 13.4 mph 94 % 0 in
12:43 54.1 °F 53.6 °F 29.8 in SSW 11.4 mph 11.4 mph 94 % 0 in
12:48 54.1 °F 53.6 °F 29.8 in SSW 11.4 mph 11.4 mph 94 % 0 in
12:53 54.1 °F 53.6 °F 29.8 in SSW 11.4 mph 11.4 mph 94 % 0 in
12:58 54.1 °F 53.6 °F 29.8 in SW 17.4 mph 17.4 mph 94 % 0 in
13:03 54.1 °F 53.6 °F 29.8 in SW 10.7 mph 17.4 mph 94 % 0 in
13:08 54.1 °F 53.6 °F 29.8 in South 8.7 mph 17.4 mph 94 % 0 in
13:13 54.1 °F 53.6 °F 29.8 in SW 7.6 mph 10.7 mph 94 % 0 in
13:18 54.1 °F 53.6 °F 29.8 in SW 7.6 mph 10.7 mph 94 % 0 in
13:24 54.1 °F 53.6 °F 29.8 in SSW 10.7 mph 10.7 mph 94 % 0 in
13:29 54.1 °F 53.6 °F 29.8 in SSW 10.7 mph 10.7 mph 94 % 0 in
13:34 58.1 °F 55.4 °F 29.8 in SSW 10.7 mph 10.7 mph 91 % 0 in
13:39 58.3 °F 55.4 °F 29.8 in SSW 10.7 mph 10.7 mph 91 % 0 in
13:44 58.5 °F 55.4 °F 29.8 in SSW 10.7 mph 10.7 mph 91 % 0 in
13:49 58.5 °F 55.4 °F 29.8 in SSW 10.7 mph 10.7 mph 91 % 0 in
13:54 58.5 °F 55.4 °F 29.8 in SSW 10.7 mph 10.7 mph 91 % 0 in
13:59 58.5 °F 55.4 °F 29.8 in SSW 10.7 mph 10.7 mph 91 % 0 in
14:04 58.5 °F 55.4 °F 29.8 in SSW 10.7 mph 10.7 mph 91 % 0 in
14:09 59 °F 51.8 °F 29.8 in SSW 10.7 mph 10.7 mph 78 % 0 in
14:11 59 °F 51.8 °F 29.8 in SSW 10.7 mph 10.7 mph 78 % 0 in
14:16 59 °F 51.8 °F 29.8 in SSW 10.7 mph 10.7 mph 78 % 0 in
14:21 59 °F 51.8 °F 29.8 in SSW 10.7 mph 10.7 mph 78 % 0 in
14:26 59.2 °F 50 °F 29.8 in SSW 10.7 mph 10.7 mph 73 % 0 in
14:31 59.4 °F 51.8 °F 29.8 in SSW 10.7 mph 10.7 mph 73 % 0 in
14:36 59.4 °F 51.8 °F 29.8 in SSW 10.7 mph 10.7 mph 73 % 0 in
14:41 60.1 °F 50 °F 29.8 in SSW 10.7 mph 10.7 mph 70 % 0 in
14:46 61 °F 50 °F 29.8 in SSW 10.7 mph 10.7 mph 68 % 0 in
14:47 61 °F 50 °F 29.8 in SSW 10.7 mph 10.7 mph 68 % 0 in
14:52 61 °F 50 °F 29.8 in SSW 10.7 mph 10.7 mph 68 % 0 in
14:57 61 °F 50 °F 29.8 in SSW 10.7 mph 10.7 mph 68 % 0 in
15:02 62.2 °F 50 °F 29.8 in SSW 10.7 mph 10.7 mph 64 % 0 in
15:07 62.2 °F 50 °F 29.8 in SSW 10.7 mph 10.7 mph 63 % 0 in
15:12 62.2 °F 50 °F 29.8 in SSW 10.7 mph 10.7 mph 63 % 0 in
15:17 62.1 °F 50 °F 29.8 in SSW 10.7 mph 10.7 mph 63 % 0 in
15:22 61.7 °F 48.2 °F 29.8 in SSW 10.7 mph 10.7 mph 59 % 0 in
15:27 61.3 °F 48.2 °F 29.8 in SSW 10.7 mph 10.7 mph 60 % 0 in
15:32 61.3 °F 48.2 °F 29.8 in SSW 10.7 mph 10.7 mph 59 % 0 in
15:37 61.3 °F 48.2 °F 29.8 in SSW 10.7 mph 10.7 mph 59 % 0 in
15:42 61.3 °F 48.2 °F 29.8 in SSW 10.7 mph 10.7 mph 59 % 0 in
15:47 61.3 °F 48.2 °F 29.8 in SSW 10.7 mph 10.7 mph 59 % 0 in
15:52 61.3 °F 48.2 °F 29.8 in SSW 10.7 mph 10.7 mph 59 % 0 in
15:57 61.3 °F 50 °F 29.8 in WSW 19.5 mph 19.5 mph 66 % 0 in
16:02 61.3 °F 50 °F 29.8 in WSW 19.5 mph 19.5 mph 66 % 0 in
16:07 61.7 °F 50 °F 29.8 in WSW 19.5 mph 19.5 mph 65 % 0 in
16:12 61.3 °F 48.2 °F 29.8 in WSW 19.5 mph 19.5 mph 62 % 0 in
16:17 61.2 °F 48.2 °F 29.8 in WSW 19.5 mph 19.5 mph 62 % 0 in
16:22 61 °F 48.2 °F 29.8 in WSW 19.5 mph 19.5 mph 61 % 0 in
16:27 61 °F 48.2 °F 29.8 in WSW 19.5 mph 19.5 mph 60 % 0 in
16:32 61.2 °F 48.2 °F 29.9 in WSW 19.5 mph 19.5 mph 60 % 0 in
16:36 61.2 °F 48.2 °F 29.9 in WSW 19.5 mph 19.5 mph 62 % 0 in
16:41 61.2 °F 48.2 °F 29.9 in WSW 19.5 mph 19.5 mph 59 % 0 in
16:46 60.3 °F 46.4 °F 29.9 in WSW 19.5 mph 19.5 mph 60 % 0 in
16:51 59.7 °F 46.4 °F 29.9 in WSW 19.5 mph 19.5 mph 62 % 0 in
16:52 59.7 °F 46.4 °F 29.9 in WSW 19.5 mph 19.5 mph 62 % 0 in
16:57 59.4 °F 46.4 °F 29.9 in WSW 19.5 mph 19.5 mph 62 % 0 in
17:02 59.7 °F 48.2 °F 29.9 in WSW 19.5 mph 19.5 mph 64 % 0 in
17:04 59.7 °F 48.2 °F 29.9 in WSW 19.5 mph 19.5 mph 64 % 0 in
17:09 59.5 °F 48.2 °F 29.9 in WSW 19.5 mph 19.5 mph 66 % 0 in
17:14 59.2 °F 48.2 °F 29.9 in WSW 19.5 mph 19.5 mph 66 % 0 in
17:19 59 °F 48.2 °F 29.9 in WSW 19.5 mph 19.5 mph 66 % 0 in
17:24 58.8 °F 48.2 °F 29.9 in WSW 19.5 mph 19.5 mph 68 % 0 in
17:29 58.3 °F 48.2 °F 29.9 in WSW 19.5 mph 19.5 mph 69 % 0 in
17:34 58.3 °F 48.2 °F 29.8 in WSW 19.5 mph 19.5 mph 70 % 0 in
17:40 58.5 °F 48.2 °F 29.8 in WSW 19.5 mph 19.5 mph 70 % 0 in
17:45 58.3 °F 50 °F 29.8 in WSW 19.5 mph 19.5 mph 71 % 0 in
17:50 58.3 °F 50 °F 29.8 in WSW 19.5 mph 19.5 mph 71 % 0 in
17:55 58.1 °F 48.2 °F 29.8 in WSW 19.5 mph 19.5 mph 69 % 0 in
18:00 58.1 °F 48.2 °F 29.8 in WSW 19.5 mph 19.5 mph 70 % 0 in
18:05 58.1 °F 50 °F 29.9 in WSW 19.5 mph 19.5 mph 71 % 0 in
18:10 57.9 °F 48.2 °F 29.9 in WSW 19.5 mph 19.5 mph 70 % 0 in
18:15 57.4 °F 48.2 °F 29.9 in WSW 19.5 mph 19.5 mph 71 % 0 in
18:20 57.2 °F 48.2 °F 29.9 in WSW 19.5 mph 19.5 mph 71 % 0 in
18:25 57 °F 48.2 °F 29.9 in WSW 19.5 mph 19.5 mph 71 % 0 in
18:30 56.8 °F 48.2 °F 29.9 in WSW 19.5 mph 19.5 mph 72 % 0 in
18:35 56.7 °F 48.2 °F 29.9 in WSW 19.5 mph 19.5 mph 74 % 0 in
18:40 56.7 °F 48.2 °F 29.9 in WSW 19.5 mph 19.5 mph 74 % 0 in
18:45 56.7 °F 50 °F 29.9 in WSW 19.5 mph 19.5 mph 75 % 0 in
18:50 56.5 °F 50 °F 29.9 in WSW 19.5 mph 19.5 mph 76 % 0 in
18:55 56.5 °F 50 °F 29.9 in WSW 19.5 mph 19.5 mph 76 % 0 in
19:00 56.5 °F 50 °F 29.9 in WSW 19.5 mph 19.5 mph 76 % 0 in
19:05 56.7 °F 50 °F 29.9 in WSW 19.5 mph 19.5 mph 77 % 0 in
19:10 56.7 °F 50 °F 29.9 in WSW 19.5 mph 19.5 mph 77 % 0 in
19:15 56.5 °F 50 °F 29.9 in WSW 19.5 mph 19.5 mph 77 % 0 in
19:20 56.5 °F 50 °F 29.9 in WSW 19.5 mph 19.5 mph 77 % 0 in
19:25 56.3 °F 50 °F 29.9 in WSW 19.5 mph 19.5 mph 77 % 0 in
19:30 56.1 °F 50 °F 29.9 in WSW 19.5 mph 19.5 mph 77 % 0 in
19:35 55.9 °F 50 °F 29.9 in WSW 19.5 mph 19.5 mph 77 % 0 in
19:40 55.9 °F 50 °F 29.9 in WSW 19.5 mph 19.5 mph 77 % 0 in
19:45 55.8 °F 50 °F 29.9 in Calm     78 % 0 in
19:50 55.8 °F 50 °F 29.9 in Calm     78 % 0 in
19:55 55.4 °F 50 °F 29.9 in Calm     79 % 0 in
20:00 55.4 °F 50 °F 29.9 in Calm     79 % 0 in
20:05 55.4 °F 50 °F 29.9 in Calm     79 % 0 in
20:10 55.2 °F 50 °F 29.9 in SSW 1.3 mph 1.3 mph 80 % 0 in
20:15 55 °F 50 °F 29.9 in Calm   1.3 mph 81 % 0 in
20:20 54.9 °F 50 °F 29.9 in Calm     81 % 0 in
20:25 54.9 °F 50 °F 29.9 in Calm     81 % 0 in
20:35 54.5 °F 50 °F 29.9 in Calm     82 % 0 in
20:40 54.5 °F 50 °F 29.9 in South 3.6 mph 4.7 mph 82 % 0 in
20:46 54.3 °F 50 °F 29.9 in Calm   4.7 mph 82 % 0 in
20:51 54 °F 48.2 °F 29.9 in Calm   3.6 mph 82 % 0 in
20:56 53.8 °F 48.2 °F 29.9 in Calm   4 mph 82 % 0 in
21:01 53.2 °F 48.2 °F 29.9 in Calm   4 mph 83 % 0 in
21:06 53.1 °F 48.2 °F 29.9 in Calm   2.9 mph 84 % 0 in
21:11 53.1 °F 48.2 °F 29.9 in SSW 5.6 mph 5.6 mph 84 % 0 in
21:16 53.1 °F 48.2 °F 29.9 in SSW 5.6 mph 5.6 mph 84 % 0 in
21:21 52.9 °F 48.2 °F 29.9 in SSE 6 mph 6 mph 85 % 0 in
21:26 52.7 °F 48.2 °F 29.9 in SSE 6 mph 6 mph 85 % 0 in
21:31 52.7 °F 48.2 °F 29.9 in SSE 6 mph 6 mph 85 % 0 in
21:36 52.5 °F 48.2 °F 29.9 in Calm   6 mph 86 % 0 in
21:41 52.5 °F 48.2 °F 29.9 in Calm     87 % 0 in
21:46 52.7 °F 50 °F 29.9 in SSW 0.9 mph 0.9 mph 87 % 0 in
21:51 52.9 °F 50 °F 29.9 in SSW 0.9 mph 0.9 mph 87 % 0 in
21:53 52.7 °F 50 °F 29.9 in Calm   0.9 mph 87 % 0 in
21:58 52.7 °F 48.2 °F 29.9 in Calm   0.9 mph 86 % 0 in
22:03 52.5 °F 48.2 °F 29.9 in SSW 2.9 mph 2.9 mph 86 % 0 in
22:08 52.3 °F 48.2 °F 29.9 in South 3.6 mph 3.8 mph 86 % 0 in
22:13 52.3 °F 48.2 °F 29.9 in South 5.6 mph 5.6 mph 86 % 0 in
22:18 52.3 °F 48.2 °F 29.9 in South 5.6 mph 5.6 mph 86 % 0 in
22:23 52.2 °F 48.2 °F 29.9 in SSW 1.1 mph 5.6 mph 87 % 0 in
22:28 52 °F 48.2 °F 29.9 in SSW 4.9 mph 5.6 mph 86 % 0 in
22:33 52 °F 48.2 °F 29.9 in Calm   6 mph 87 % 0 in
22:38 52 °F 48.2 °F 29.9 in SSW 4.9 mph 6 mph 87 % 0 in
22:43 52 °F 48.2 °F 29.9 in SSW 2.5 mph 6 mph 87 % 0 in
22:48 51.8 °F 48.2 °F 29.9 in South 2.2 mph 6 mph 86 % 0 in
22:53 51.8 °F 48.2 °F 29.9 in SSW 4 mph 4 mph 86 % 0 in
23:03 51.6 °F 48.2 °F 29.9 in SSW 4 mph 4 mph 88 % 0 in
23:08 51.6 °F 48.2 °F 29.9 in SSW 4 mph 4 mph 88 % 0 in
23:13 51.8 °F 48.2 °F 29.9 in SSW 2 mph 2 mph 88 % 0 in
23:18 51.8 °F 48.2 °F 29.9 in SSW 2 mph 2 mph 88 % 0 in
23:23 51.8 °F 48.2 °F 29.9 in Calm   2 mph 88 % 0 in
23:28 51.8 °F 48.2 °F 29.9 in Calm   2 mph 88 % 0 in
23:33 52 °F 48.2 °F 29.9 in Calm     88 % 0 in
23:38 52 °F 48.2 °F 29.9 in Calm     89 % 0 in
23:44 52.2 °F 50 °F 29.9 in SSE 3.6 mph 3.6 mph 89 % 0 in
23:49 52.3 °F 50 °F 29.8 in Calm   5.6 mph 89 % 0 in
23:54 52.5 °F 48.2 °F 29.8 in South 4.7 mph 5.6 mph 88 % 0 in
23:59 52.5 °F 48.2 °F 29.8 in Calm   5.6 mph 88 % 0 in
Le Gheer Warneton
Courtoisie de Weather Underground - 2.25 mb

Mise a jour : 17-12-17 07:14:12
Généré par Cumulus 1.9.4 (1099)